DW8404 Weather Reports


time (UTC)temp
C
wind
direction
speed
KPH
gust
KPH
rain 1hr
cm
rain 24hr
cm
rain mn
cm
humidity
%
barometer
mb
20260504151003 17 215 6.4 30.6 0.00 0.10 0.00 66 1005.3
20260504150503 17 215 6.4 30.6 0.00 0.10 0.00 66 1005.4
20260504150216 17 215 6.4 30.6 0.00 0.10 0.00 66 1005.7
20260504141216 17 215 6.4 30.6 0.00 0.10 0.00 66 1005.8
20260504140503 17 215 6.4 30.6 0.00 0.10 0.00 66 1005.7
20260504130503 17 215 6.4 30.6 0.00 0.10 0.00 66 1006.5
20260504120213 17 215 6.4 30.6 0.00 0.10 0.00 66 1006.7
20260504110503 17 215 6.4 30.6 0.00 0.10 0.00 66 1006.6
20260504110214 17 215 6.4 30.6 0.00 0.10 0.00 66 1006.6
20260504081503 15 126 1.6 9.7 0.00 0.10 0.00 87 1006.6
20260504081215 15 126 1.6 9.7 0.00 0.10 0.00 86 1006.7
20260504080503 15 0 0.0 0.0 0.00 0.10 0.00 85 1006.9
20260504080216 15 0 0.0 0.0 0.00 0.10 0.00 85 1006.9
20260504060217 17 0 0.0 0.0 0.00 0.10 0.00 73 1007.6
20260504050715 15 0 0.0 0.0 0.00 0.10 0.00 90 1007.1
20260504050223 15 0 0.0 0.0 0.00 0.10 0.00 90 1007.1
20260504045715 15 0 0.0 0.0 0.00 0.10 0.10 90 1007.1
20260504045003 15 0 0.0 0.0 0.03 0.10 0.10 90 1006.9
20260504044716 15 0 0.0 0.0 0.03 0.10 0.10 89 1006.8
20260504044003 15 0 0.0 0.0 0.10 0.10 0.10 88 1006.6
20260504043712 15 0 0.0 0.0 0.10 0.10 0.10 88 1006.7
20260504043003 15 0 0.0 0.0 0.10 0.10 0.10 87 1006.8
20260504042503 15 0 0.0 0.0 0.10 0.10 0.10 86 1006.9
20260504042003 16 0 0.0 0.0 0.10 0.10 0.10 86 1007.1
20260504041503 16 0 0.0 0.0 0.10 0.10 0.10 85 1007.2
20260504041003 16 0 0.0 0.0 0.10 0.10 0.10 83 1007.4
20260504040715 16 0 0.0 0.0 0.10 0.10 0.10 82 1007.6
20260504040213 17 0 0.0 0.0 0.10 0.10 0.10 80 1007.7
20260504035716 17 0 0.0 0.0 0.10 0.10 0.10 78 1007.7
20260504035004 18 0 0.0 0.0 0.08 0.08 0.08 74 1008.0
20260504034503 19 0 0.0 0.0 0.08 0.08 0.08 69 1008.6
20260504034003 20 0 0.0 0.0 0.00 0.00 0.00 64 1008.3
20260504033503 20 0 0.0 0.0 0.00 0.00 0.00 63 1007.3
20260504033216 20 0 0.0 0.0 0.00 0.00 0.00 67 1007.4
20260504032714 20 0 0.0 0.0 0.00 0.00 0.00 68 1007.6
20260504032217 20 242 0.0 1.6 0.00 0.00 0.00 67 1007.7
20260504031503 19 242 0.0 1.6 0.00 0.00 0.00 67 1007.8
20260504031213 19 0 0.0 0.0 0.00 0.00 0.00 67 1007.8
20260504030716 19 0 0.0 0.0 0.00 0.00 0.00 68 1007.8
20260504030003 20 0 0.0 0.0 0.00 0.00 0.00 72 1007.7
20260504025717 20 0 0.0 0.0 0.00 0.00 0.00 71 1007.8
20260504025003 20 0 0.0 0.0 0.00 0.00 0.00 69 1007.7
20260504024713 20 0 0.0 0.0 0.00 0.00 0.00 63 1007.7
20260504024216 20 0 0.0 0.0 0.00 0.00 0.00 65 1007.7
20260504023503 20 0 0.0 0.0 0.00 0.00 0.00 68 1007.8
20260504023217 20 0 0.0 0.0 0.00 0.00 0.00 67 1007.7
20260504022714 20 0 0.0 0.0 0.00 0.00 0.00 65 1007.7
20260504022003 20 0 0.0 0.0 0.00 0.00 0.00 57 1007.6
20260504021715 20 0 0.0 0.0 0.00 0.00 0.00 59 1007.6
20260504021003 21 0 0.0 0.0 0.00 0.00 0.00 64 1007.6
20260504020503 21 0 0.0 0.0 0.00 0.00 0.00 63 1007.6
20260504020214 21 0 0.0 0.0 0.00 0.00 0.00 60 1007.6
20260504015717 21 0 0.0 0.0 0.00 0.00 0.00 55 1007.6
20260504015003 21 0 0.0 0.0 0.00 0.00 0.00 52 1007.6
20260504014713 21 0 0.0 0.0 0.00 0.00 0.00 51 1007.5
20260504014003 21 0 0.0 0.0 0.00 0.00 0.00 50 1007.5
20260504013714 21 0 0.0 0.0 0.00 0.00 0.00 51 1007.5
20260504013217 21 0 0.0 0.0 0.00 0.00 0.00 52 1007.5
20260504012503 21 0 0.0 0.0 0.00 0.00 0.00 54 1007.4
20260504012213 21 0 0.0 0.0 0.00 0.00 0.00 55 1007.4
20260504011716 21 0 0.0 0.0 0.00 0.00 0.00 57 1007.5
20260504011214 21 0 0.0 0.0 0.00 0.00 0.00 57 1007.4
20260504010717 22 0 0.0 0.0 0.00 0.00 0.00 56 1007.3
20260504010215 22 0 0.0 0.0 0.00 0.00 0.00 56 1007.2
20260504005713 23 0 0.0 0.0 0.00 0.00 0.00 51 1007.2
20260504005004 23 0 0.0 0.0 0.00 0.00 0.00 45 1007.0
20260504004503 23 0 0.0 0.0 0.00 0.00 0.00 43 1007.0
20260504004003 23 0 0.0 0.0 0.00 0.00 0.00 43 1006.9
20260504003503 23 0 0.0 0.0 0.00 0.00 0.00 42 1007.0
20260504003003 23 0 0.0 0.0 0.00 0.00 0.00 42 1007.0
20260504002503 23 0 0.0 0.0 0.00 0.00 0.00 42 1007.0
20260504002003 23 0 0.0 0.0 0.00 0.00 0.00 42 1007.0
20260504001717 23 0 0.0 0.0 0.00 0.00 0.00 42 1007.1
20260504001003 24 0 0.0 0.0 0.00 0.00 0.00 42 1007.1
20260504000713 24 0 0.0 0.0 0.00 0.00 0.00 42 1007.1
20260504000003 24 0 0.0 0.0 0.00 0.00 0.00 42 1007.1
20260503235503 24 0 0.0 0.0 0.00 0.00 0.00 42 1007.1
20260503235003 24 0 0.0 0.0 0.00 0.00 0.00 42 1007.0
20260503234714 24 0 0.0 0.0 0.00 0.00 0.00 41 1007.1
20260503234003 24 0 0.0 0.0 0.00 0.00 0.00 41 1007.2
20260503233503 25 0 0.0 0.0 0.00 0.00 0.00 40 1007.3
20260503233003 25 0 0.0 0.0 0.00 0.00 0.00 40 1007.2
20260503232503 25 263 0.0 1.6 0.00 0.00 0.00 40 1007.2
20260503232214 25 241 6.4 62.8 0.00 0.00 0.00 40 1007.2
20260503231712 25 242 6.4 62.8 0.00 0.00 0.00 39 1007.4
20260503231003 25 0 0.0 0.0 0.00 0.00 0.00 39 1007.4
20260503230713 25 0 0.0 0.0 0.00 0.00 0.00 38 1007.4
20260503230216 25 0 0.0 0.0 0.00 0.00 0.00 39 1007.5
20260503225503 25 0 0.0 0.0 0.00 0.00 0.00 38 1007.5
20260503225003 25 0 0.0 0.0 0.00 0.00 0.00 37 1007.6
20260503224715 25 0 0.0 0.0 0.00 0.00 0.00 37 1007.5
20260503224003 25 0 0.0 0.0 0.00 0.00 0.00 37 1007.6
20260503223716 25 0 0.0 0.0 0.00 0.00 0.00 38 1007.6
20260503223003 25 0 0.0 0.0 0.00 0.00 0.00 37 1007.6
20260503222717 25 0 0.0 0.0 0.00 0.00 0.00 37 1007.6
20260503222215 25 0 0.0 0.0 0.00 0.00 0.00 37 1007.7
20260503221503 25 0 0.0 0.0 0.00 0.00 0.00 37 1007.8
20260503221003 25 0 0.0 0.0 0.00 0.00 0.00 38 1007.7
20260503220714 25 0 0.0 0.0 0.00 0.00 0.00 36 1007.8
20260503220217 25 0 0.0 0.0 0.00 0.00 0.00 36 1007.9
20260503215503 25 0 0.0 0.0 0.00 0.00 0.00 37 1008.0
20260503215213 25 0 0.0 0.0 0.00 0.00 0.00 36 1008.1
20260503214503 25 0 0.0 0.0 0.00 0.00 0.00 36 1008.1
20260503214003 25 0 0.0 0.0 0.00 0.00 0.00 36 1008.1
20260503213717 25 0 0.0 0.0 0.00 0.00 0.00 36 1008.3
20260503213003 25 217 0.0 4.8 0.00 0.00 0.00 36 1008.5
20260503212713 25 217 0.0 4.8 0.00 0.00 0.00 36 1008.5
20260503212003 25 0 0.0 0.0 0.00 0.00 0.00 36 1008.5
20260503211503 25 0 0.0 0.0 0.00 0.00 0.00 37 1008.6
20260503211003 24 0 0.0 0.0 0.00 0.00 0.00 36 1008.7
20260503210503 24 254 0.0 9.7 0.00 0.00 0.00 37 1008.8
20260503210218 24 254 0.0 9.7 0.00 0.00 0.00 36 1008.8
20260503205503 24 211 16.1 82.1 0.00 0.00 0.00 37 1008.8
20260503205213 24 213 22.5 82.1 0.00 0.00 0.00 37 1008.9
20260503204716 24 222 20.9 67.6 0.00 0.00 0.00 37 1008.9
20260503204214 24 222 20.9 66.0 0.00 0.00 0.00 37 1008.9
20260503203503 23 216 17.7 54.7 0.00 0.00 0.00 37 1008.9
20260503203003 23 219 19.3 46.7 0.00 0.00 0.00 39 1009.0
20260503202713 23 221 24.1 46.7 0.00 0.00 0.00 38 1009.2
20260503202003 23 218 24.1 54.7 0.00 0.00 0.00 37 1009.4
20260503201503 23 220 19.3 45.1 0.00 0.00 0.00 38 1009.4
20260503201003 23 227 22.5 62.8 0.00 0.00 0.00 38 1009.5
20260503200715 23 228 25.7 62.8 0.00 0.00 0.00 37 1009.6
20260503200213 23 225 22.5 62.8 0.00 0.00 0.00 38 1009.8
20260503195503 23 225 17.7 51.5 0.00 0.00 0.00 36 1009.9
20260503195214 23 230 17.7 43.5 0.00 0.00 0.00 38 1010.0
20260503194717 23 229 22.5 51.5 0.00 0.00 0.00 38 1010.2
20260503194003 22 217 19.3 67.6 0.00 0.00 0.00 39 1010.4
20260503193713 22 215 17.7 67.6 0.00 0.00 0.00 41 1010.4
20260503193216 22 218 19.3 46.7 0.00 0.00 0.00 38 1010.6
20260503192714 22 220 20.9 46.7 0.00 0.00 0.00 39 1010.8
20260503192003 22 221 19.3 48.3 0.00 0.00 0.00 37 1010.9
20260503191503 22 219 20.9 48.3 0.00 0.00 0.00 39 1011.0
20260503191213 22 212 22.5 46.7 0.00 0.00 0.00 39 1011.1
20260503190716 22 213 25.7 64.4 0.00 0.00 0.00 38 1011.2
20260503190003 22 214 20.9 64.4 0.00 0.00 0.00 37 1011.4
20260503185717 22 215 17.7 54.7 0.00 0.00 0.00 38 1011.4
20260503185215 22 216 20.9 54.7 0.00 0.00 0.00 39 1011.6
20260503184503 22 225 19.3 54.7 0.00 0.00 0.00 37 1011.8
20260503184003 22 231 16.1 38.6 0.00 0.00 0.00 38 1011.8
20260503183503 21 227 19.3 64.4 0.00 0.00 0.00 38 1011.9
20260503183003 21 216 16.1 64.4 0.00 0.00 0.00 39 1012.1
20260503182503 21 214 17.7 49.9 0.00 0.00 0.00 39 1012.2
20260503182212 21 213 20.9 49.9 0.00 0.00 0.00 38 1012.1
20260503181715 21 219 16.1 49.9 0.00 0.00 0.00 40 1012.3
20260503181213 21 218 16.1 38.6 0.00 0.00 0.00 41 1012.4
20260503180503 21 213 16.1 35.4 0.00 0.00 0.00 40 1012.7
20260503180003 20 218 16.1 46.7 0.00 0.00 0.00 42 1012.9
20260503175712 20 215 19.3 56.3 0.00 0.00 0.00 40 1012.9
20260503175003 20 209 24.1 59.5 0.00 0.00 0.00 41 1013.4
20260503174713 20 213 22.5 59.5 0.00 0.00 0.00 41 1013.6
20260503174003 20 217 20.9 46.7 0.00 0.00 0.00 41 1013.7
20260503173714 20 211 0.0 46.7 0.00 0.00 0.00 40 1013.8
20260503173003 6 0 0.0 1.6 0.00 0.00 0.00 87 1013.9
20260503172715 6 0 0.0 1.6 0.00 0.00 0.00 87 1014.1
20260503172213 6 0 0.0 1.6 0.00 0.00 0.00 87 1014.4
20260503171503 6 0 0.0 1.6 0.00 0.00 0.00 87 1014.7
20260503171214 6 0 0.0 1.6 0.00 0.00 0.00 87 1014.7
20260503170503 6 0 0.0 1.6 0.00 0.00 0.00 87 1014.7